EA1QW Weather Reports


Display with metric or nautical units.
time (UTC)temp
F
wind
direction
speed
MPH
gust
MPH
rain 1hr
in
rain 24hr
in
rain mn
in
humidity
%
barometer
mb
20201025081028 55 186 0.0 3.0 0.00 4.29 0.86 87 1008.0
20201025080539 55 186 0.0 3.0 0.00 4.29 0.86 87 1008.0
20201025080055 55 186 0.0 2.0 0.00 4.29 0.86 87 1008.0
20201025075556 56 186 0.0 2.0 0.00 4.29 0.86 87 1008.0
20201025075047 56 186 0.0 2.0 0.00 4.29 0.86 87 1008.0
20201025074534 56 186 0.0 2.0 0.00 4.29 0.86 87 1008.1
20201025074035 56 186 0.0 3.0 0.00 4.29 0.86 87 1008.1
20201025073548 56 186 1.0 3.0 0.00 4.29 0.86 87 1008.1
20201025073030 56 186 0.0 0.0 0.04 4.29 0.86 87 1008.2
20201025072537 56 186 0.0 0.0 0.04 4.29 0.86 87 1008.2
20201025072043 56 186 0.0 0.0 0.04 4.29 0.86 87 1008.2
20201025071531 56 186 0.0 3.0 0.08 4.29 0.86 86 1008.4
20201025071037 56 186 0.0 4.0 0.08 4.29 0.86 86 1008.4
20201025070545 56 186 2.0 5.0 0.08 4.29 0.86 86 1008.4
20201025070040 56 178 2.0 6.0 0.12 4.29 0.86 86 1008.5
20201025065542 56 189 2.0 7.0 0.20 4.29 0.86 86 1008.5
20201025065029 56 204 1.0 7.0 0.20 4.29 0.86 86 1008.5
20201025064538 56 198 2.0 5.0 0.24 4.29 0.86 87 1008.5
20201025064032 56 121 1.0 2.0 0.28 4.29 0.86 87 1008.5
20201025063541 55 121 0.0 1.0 0.31 4.29 0.86 87 1008.5
20201025063040 55 121 0.0 1.0 0.35 4.25 0.85 87 1009.0
20201025062550 55 121 0.0 2.0 0.47 4.25 0.85 87 1009.0
20201025062037 55 121 0.0 3.0 0.47 4.25 0.85 87 1009.0
20201025061543 55 121 0.0 3.0 0.47 4.21 0.84 87 1008.7
20201025061029 55 121 1.0 3.0 0.59 4.21 0.84 87 1008.7
20201025060538 55 121 0.0 3.0 0.67 4.21 0.84 87 1008.7
20201025060049 55 121 0.0 4.0 0.83 4.17 0.83 87 1009.1
20201025055538 55 121 0.0 7.0 0.87 4.09 0.82 86 1009.1
20201025055046 55 119 2.0 7.0 0.94 4.09 0.82 86 1009.1
20201025054535 55 109 1.0 7.0 0.94 4.06 0.81 86 1009.7
20201025054042 55 124 3.0 7.0 1.02 4.02 0.80 86 1009.7
20201025053532 55 123 3.0 7.0 1.02 3.94 0.79 86 1009.7
20201025053037 55 122 2.0 8.0 1.02 3.86 0.77 87 1009.1
20201025052547 55 144 3.0 8.0 1.06 3.78 0.76 87 1009.1
20201025052048 55 129 2.0 5.0 1.14 3.74 0.75 87 1009.1
20201025051532 55 229 0.0 3.0 1.14 3.70 0.74 87 1009.0
20201025051042 55 232 0.0 4.0 1.14 3.62 0.72 87 1009.0
20201025050535 55 232 0.0 10.0 1.10 3.54 0.71 87 1009.0
20201025050043 55 238 3.0 10.0 0.98 3.31 0.66 87 1009.0
20201025045530 55 257 5.0 14.0 0.94 3.19 0.64 87 1009.0
20201025045035 55 225 6.0 14.0 1.06 3.15 0.63 87 1009.0
20201025044543 56 324 7.0 14.0 1.14 3.07 0.61 87 1009.1
20201025044041 56 261 5.0 14.0 1.26 2.99 0.60 86 1009.1
20201025043530 56 238 6.0 12.0 1.26 2.91 0.58 86 1009.1
20201025043042 56 247 5.0 12.0 1.26 2.83 0.57 86 1009.2
20201025042531 56 237 5.0 15.0 1.26 2.72 0.54 86 1009.2
20201025042034 56 261 7.0 15.0 1.30 2.60 0.52 86 1009.2
20201025041541 56 246 5.0 10.0 1.38 2.52 0.50 86 1009.0
20201025041028 56 271 5.0 10.0 1.46 2.48 0.50 86 1009.0
20201025040547 57 254 4.0 12.0 1.50 2.44 0.49 86 1009.0
20201025040035 57 254 7.0 12.0 1.50 2.32 0.46 86 1008.5
20201025035543 57 239 4.0 12.0 1.50 2.24 0.45 86 1008.5
20201025035031 57 271 6.0 12.0 1.38 2.05 0.41 86 1008.5
20201025034541 57 269 4.0 19.0 1.26 1.89 0.38 86 1008.9
20201025034041 57 248 9.0 19.0 1.18 1.73 0.35 86 1008.9
20201025033539 57 244 7.0 17.0 1.14 1.65 0.33 86 1008.9
20201025033042 57 261 10.0 19.0 1.18 1.57 0.31 86 1008.5
20201025032533 58 273 7.0 21.0 1.14 1.42 0.28 86 1008.5
20201025032036 58 215 9.0 22.0 1.10 1.26 0.25 86 1008.5
20201025031546 58 282 11.0 22.0 1.06 1.14 0.23 86 1008.4
20201025031033 59 244 12.0 25.0 0.94 0.98 0.20 86 1008.4
20201025030538 60 265 13.0 30.0 0.87 0.91 0.18 86 1008.4
20201025030048 60 252 14.0 30.0 0.79 0.83 0.17 86 1007.9
20201025025532 60 254 5.0 13.0 0.71 0.75 0.15 86 1007.9
20201025025036 60 263 6.0 13.0 0.67 0.67 0.13 86 1007.9
20201025024545 60 242 3.0 15.0 0.63 0.63 0.13 86 1007.5
20201025024048 61 264 7.0 15.0 0.55 0.55 0.11 85 1007.5
20201025023542 61 260 5.0 12.0 0.47 0.47 0.09 85 1007.5
20201025023030 61 259 6.0 10.0 0.39 0.39 0.08 85 1007.5
20201025022536 61 258 5.0 13.0 0.28 0.28 0.06 86 1007.5
20201025022040 61 263 5.0 13.0 0.16 0.16 0.03 86 1007.5
20201025021529 61 277 5.0 11.0 0.08 0.08 0.02 85 1007.2
20201025021034 61 296 3.0 8.0 0.04 0.04 0.01 86 1007.2
20201025020545 61 360 1.0 7.0 0.04 0.04 0.01 86 1007.2
20201025020047 62 306 1.0 10.0 0.04 0.04 0.01 86 1007.3
20201025015535 62 38 6.0 10.0 0.04 0.04 0.01 86 1007.3
20201025015037 62 305 5.0 13.0 0.00 0.00 0.00 86 1007.3
20201025014552 62 360 7.0 15.0 0.00 0.00 0.00 86 1007.0
20201025014040 62 346 7.0 12.0 0.00 0.00 0.00 86 1007.0
20201025013540 63 24 0.0 3.0 0.00 0.00 0.00 86 1007.0
20201025013038 63 24 0.0 4.0 0.00 0.00 0.00 86 1006.4
20201025012539 63 5 1.0 7.0 0.00 0.00 0.00 86 1006.4
20201025012046 63 5 4.0 9.0 0.00 0.00 0.00 85 1006.4
20201025011535 64 5 3.0 9.0 0.00 0.00 0.00 85 1006.9
20201025011044 65 5 3.0 6.0 0.00 0.00 0.00 84 1006.9
20201025010532 65 83 0.0 5.0 0.00 0.00 0.00 83 1006.9
20201025010039 65 85 2.0 6.0 0.00 0.00 0.00 82 1008.0
20201025005528 66 31 2.0 8.0 0.00 0.00 0.00 82 1008.0
20201025005037 66 338 3.0 11.0 0.00 0.00 0.00 80 1008.0
20201025004554 67 314 6.0 11.0 0.00 0.00 0.00 78 1008.2
20201025004040 68 348 1.0 8.0 0.00 0.00 0.00 70 1008.2
20201025003528 68 300 2.0 8.0 0.00 0.00 0.00 68 1008.2
20201025003047 69 282 3.0 6.0 0.00 0.00 0.00 66 1007.7
20201025002536 69 265 0.0 6.0 0.00 0.00 0.00 64 1007.7
20201025002044 70 270 2.0 10.0 0.00 0.00 0.00 62 1007.7
20201025001539 70 250 3.0 10.0 0.00 0.00 0.00 61 1007.5
20201025001037 70 171 4.0 9.0 0.00 0.00 0.00 61 1007.5
20201025000544 69 242 1.0 7.0 0.00 0.00 0.00 62 1007.5
20201025000034 69 210 1.0 7.0 0.00 0.00 0.00 62 1007.8
20201024235541 69 187 2.0 7.0 0.00 0.00 0.00 63 1007.8
20201024235050 69 212 2.0 10.0 0.00 0.00 0.00 63 1007.8
20201024234539 70 192 2.0 10.0 0.00 0.00 0.00 62 1008.0
20201024234046 70 225 1.0 11.0 0.00 0.00 0.00 62 1008.0
20201024233541 70 224 5.0 11.0 0.00 0.00 0.00 60 1008.0
20201024233038 70 198 5.0 11.0 0.00 0.00 0.00 60 1007.8
20201024232534 70 221 4.0 11.0 0.00 0.00 0.00 61 1007.8
20201024232028 69 206 6.0 11.0 0.00 0.00 0.00 61 1007.8
20201024231536 69 210 4.0 12.0 0.00 0.00 0.00 62 1008.0
20201024231042 69 188 1.0 6.0 0.00 0.00 0.00 63 1008.0
20201024230541 69 158 2.0 6.0 0.00 0.00 0.00 63 1008.0
20201024230040 69 208 1.0 7.0 0.00 0.00 0.00 63 1008.1
20201024225529 68 192 2.0 7.0 0.00 0.00 0.00 63 1008.1
20201024225037 68 208 1.0 7.0 0.00 0.00 0.00 63 1008.1
20201024224550 68 220 1.0 9.0 0.00 0.00 0.00 63 1008.8
20201024224031 68 203 2.0 9.0 0.00 0.00 0.00 64 1008.8
20201024223542 67 203 3.0 7.0 0.00 0.00 0.00 65 1008.8
20201024223040 67 167 1.0 6.0 0.00 0.00 0.00 66 1008.9
20201024222529 67 202 2.0 7.0 0.00 0.00 0.00 66 1008.9
20201024222035 66 204 1.0 6.0 0.00 0.00 0.00 67 1008.9
20201024221543 66 215 2.0 4.0 0.00 0.00 0.00 67 1009.0
20201024221029 66 196 0.0 2.0 0.00 0.00 0.00 67 1009.0
20201024220536 66 196 0.0 5.0 0.00 0.00 0.00 67 1009.0
20201024220041 66 196 0.0 5.0 0.00 0.00 0.00 67 1009.6
20201024215549 66 200 0.0 5.0 0.00 0.00 0.00 67 1009.6
20201024215033 66 230 0.0 4.0 0.00 0.00 0.00 66 1009.6
20201024214541 66 230 1.0 4.0 0.00 0.00 0.00 66 1009.7
20201024214029 66 245 0.0 0.0 0.00 0.00 0.00 66 1009.7
20201024213541 66 245 0.0 6.0 0.00 0.00 0.00 67 1009.7
20201024213041 66 245 2.0 6.0 0.00 0.00 0.00 65 1009.7
20201024212546 66 229 1.0 3.0 0.00 0.00 0.00 65 1009.7
20201024212033 66 188 0.0 1.0 0.00 0.00 0.00 64 1009.7
20201024211540 67 188 0.0 1.0 0.00 0.00 0.00 64 1010.0
20201024211034 67 188 0.0 0.0 0.00 0.00 0.00 64 1010.0
20201024210538 67 188 0.0 2.0 0.00 0.00 0.00 64 1010.0
20201024210052 67 188 0.0 2.0 0.00 0.00 0.00 63 1010.1
20201024205532 67 188 0.0 2.0 0.00 0.00 0.00 62 1010.1
20201024205028 67 188 0.0 4.0 0.00 0.00 0.00 62 1010.1
20201024204549 67 188 1.0 4.0 0.00 0.00 0.00 61 1010.1
20201024204045 67 180 0.0 4.0 0.00 0.00 0.00 62 1010.1
20201024203533 67 180 1.0 6.0 0.00 0.00 0.00 62 1010.1
20201024203037 67 167 2.0 6.0 0.00 0.00 0.00 62 1010.1
20201024202546 66 159 1.0 6.0 0.00 0.00 0.00 63 1010.1
20201024202036 66 161 1.0 8.0 0.00 0.00 0.00 64 1010.1
20201024201547 65 192 2.0 8.0 0.00 0.00 0.00 65 1010.1
20201024201032 65 190 1.0 6.0 0.00 0.00 0.00 66 1010.1
20201024200540 64 197 2.0 6.0 0.00 0.00 0.00 69 1010.1
20201024200033 62 161 2.0 6.0 0.00 0.00 0.00 72 1010.6
20201024195536 61 200 3.0 7.0 0.00 0.00 0.00 75 1010.6
20201024195049 61 194 1.0 0.0 0.00 0.00 0.00 77 1010.5
20201024194546 60 181 1.0 4.0 0.00 0.00 0.00 78 1010.7
20201024194034 60 160 0.0 7.0 0.00 0.00 0.00 78 1010.7
20201024193538 60 75 1.0 2.0 0.00 0.00 0.00 79 1010.7
20201024193035 60 355 0.0 2.0 0.00 0.00 0.00 79 1010.8
20201024192543 60 355 0.0 2.0 0.00 0.00 0.00 79 1010.8
20201024192032 61 355 1.0 2.0 0.00 0.00 0.00 79 1010.8
20201024191540 61 355 0.0 0.0 0.00 0.00 0.00 78 1011.1
20201024191030 61 355 0.0 2.0 0.00 0.00 0.00 78 1011.1
20201024190536 61 355 0.0 3.0 0.00 0.00 0.00 77 1011.1
20201024190046 62 360 1.0 3.0 0.00 0.00 0.00 77 1011.3
20201024185537 62 360 1.0 3.0 0.00 0.00 0.00 77 1011.3
20201024185042 62 360 0.0 3.0 0.00 0.00 0.00 76 1011.3
20201024184530 62 360 1.0 3.0 0.00 0.00 0.00 76 1011.7
20201024184037 63 262 1.0 3.0 0.00 0.00 0.00 75 1011.7
20201024183546 63 262 0.0 3.0 0.00 0.00 0.00 75 1011.7
20201024183041 63 262 2.0 3.0 0.00 0.00 0.00 74 1011.8
20201024182538 64 262 1.0 3.0 0.00 0.00 0.00 73 1011.8
20201024182035 64 261 0.0 3.0 0.00 0.00 0.00 72 1011.8
20201024181543 64 261 1.0 3.0 0.00 0.00 0.00 73 1011.9
20201024181038 64 261 0.0 5.0 0.00 0.00 0.00 72 1011.9
20201024180548 65 261 1.0 6.0 0.00 0.00 0.00 72 1011.9
20201024180046 65 263 2.0 6.0 0.00 0.00 0.00 69 1011.8
20201024175539 65 150 1.0 2.0 0.00 0.00 0.00 69 1011.8
20201024175029 65 150 0.0 2.0 0.00 0.00 0.00 69 1011.8
20201024174540 66 150 0.0 0.0 0.00 0.00 0.00 69 1012.2
20201024174035 66 149 0.0 0.0 0.00 0.00 0.00 69 1012.2
20201024173544 66 150 0.0 0.0 0.00 0.00 0.00 69 1012.2
20201024173042 66 149 0.0 0.0 0.00 0.00 0.00 68 1012.1
20201024172542 67 150 0.0 0.0 0.00 0.00 0.00 68 1012.1
20201024172032 67 149 0.0 0.0 0.00 0.00 0.00 67 1012.1
20201024171541 67 149 0.0 0.0 0.00 0.00 0.00 67 1012.2
20201024171032 67 149 0.0 0.0 0.00 0.00 0.00 66 1012.2
20201024170540 68 149 0.0 0.0 0.00 0.00 0.00 67 1012.2
20201024170032 68 150 0.0 0.0 0.00 0.00 0.00 66 1012.6
20201024165537 68 150 0.0 0.0 0.00 0.00 0.00 66 1012.6
20201024165043 69 150 0.0 1.0 0.00 0.00 0.00 63 1012.6
20201024164532 69 149 0.0 2.0 0.00 0.00 0.00 62 1012.7
20201024164049 69 150 0.0 3.0 0.00 0.00 0.00 62 1012.7
20201024163533 69 150 0.0 5.0 0.00 0.00 0.00 61 1012.7
20201024163036 69 148 2.0 5.0 0.00 0.00 0.00 61 1013.1
20201024162545 69 121 1.0 5.0 0.00 0.00 0.00 61 1013.1
20201024162041 69 163 0.0 5.0 0.00 0.00 0.00 61 1013.1
20201024161548 69 156 1.0 3.0 0.00 0.00 0.00 62 1013.2
20201024161034 69 158 0.0 4.0 0.00 0.00 0.00 61 1013.2
20201024160543 69 158 1.0 7.0 0.00 0.00 0.00 60 1013.2
20201024160031 69 165 1.0 7.0 0.00 0.00 0.00 60 1013.2
20201024155534 69 177 0.0 4.0 0.00 0.00 0.00 61 1013.2
20201024155045 70 138 1.0 4.0 0.00 0.00 0.00 60 1013.2
20201024154532 70 151 0.0 8.0 0.00 0.00 0.00 59 1013.4
20201024154039 70 153 3.0 8.0 0.00 0.00 0.00 58 1013.4
20201024153528 70 187 1.0 5.0 0.00 0.00 0.00 59 1013.4
20201024153034 71 169 1.0 5.0 0.00 0.00 0.00 58 1013.4
20201024152545 71 153 2.0 5.0 0.00 0.00 0.00 58 1013.4
20201024152032 71 159 2.0 7.0 0.00 0.00 0.00 57 1013.4
20201024151542 71 192 3.0 7.0 0.00 0.00 0.00 56 1013.4
20201024151029 72 150 3.0 9.0 0.00 0.00 0.00 57 1013.4
20201024150536 72 188 4.0 10.0 0.00 0.00 0.00 55 1013.4
20201024150053 72 194 4.0 10.0 0.00 0.00 0.00 55 1013.7
20201024145533 72 158 5.0 10.0 0.00 0.00 0.00 55 1013.7
20201024145042 72 159 3.0 11.0 0.00 0.00 0.00 56 1013.7
20201024144534 73 156 4.0 11.0 0.00 0.00 0.00 57 1013.8
20201024144047 73 171 0.0 5.0 0.00 0.00 0.00 62 1013.8
20201024143528 72 109 1.0 3.0 0.00 0.00 0.00 65 1013.8
20201024143037 71 110 0.0 2.0 0.00 0.00 0.00 64 1013.9
20201024142537 71 110 1.0 4.0 0.00 0.00 0.00 67 1013.9
20201024142042 70 111 2.0 4.0 0.00 0.00 0.00 66 1013.9
20201024141536 70 5 1.0 2.0 0.00 0.00 0.00 68 1014.3
20201024141043 70 5 0.0 2.0 0.00 0.00 0.00 68 1014.3
20201024140533 69 5 0.0 0.0 0.00 0.00 0.00 67 1014.3
20201024140034 70 5 0.0 3.0 0.00 0.00 0.00 66 1014.7
20201024135540 70 5 0.0 3.0 0.00 0.00 0.00 68 1014.7
20201024135029 70 5 0.0 2.0 0.00 0.00 0.00 66 1014.7
20201024134536 70 5 0.0 0.0 0.00 0.00 0.00 65 1014.9
20201024134039 70 5 0.0 1.0 0.00 0.00 0.00 65 1014.9
20201024133529 70 5 0.0 3.0 0.00 0.00 0.00 65 1014.9
20201024133051 69 5 1.0 4.0 0.00 0.00 0.00 65 1015.2
20201024132529 69 5 1.0 4.0 0.00 0.00 0.00 67 1015.2
20201024132029 69 5 2.0 4.0 0.00 0.00 0.00 67 1015.2
20201024131542 68 21 0.0 4.0 0.00 0.00 0.00 71 1015.3
20201024131045 68 21 2.0 6.0 0.00 0.00 0.00 70 1015.3
20201024130538 68 22 4.0 6.0 0.00 0.00 0.00 69 1015.3
20201024130042 69 35 4.0 6.0 0.00 0.00 0.00 70 1015.3
20201024125527 70 319 1.0 5.0 0.00 0.00 0.00 69 1015.3
20201024125040 72 267 3.0 5.0 0.00 0.00 0.00 63 1015.3
20201024124541 72 162 0.0 2.0 0.00 0.00 0.00 57 1015.5
20201024124031 72 162 0.0 0.0 0.00 0.00 0.00 56 1015.5
20201024123544 72 162 0.0 4.0 0.00 0.00 0.00 56 1015.5
20201024123047 72 162 0.0 5.0 0.00 0.00 0.00 59 1015.9
20201024122532 71 162 2.0 5.0 0.00 0.00 0.00 57 1015.9
20201024122041 72 159 1.0 3.0 0.00 0.00 0.00 60 1015.9
20201024121532 72 160 0.0 5.0 0.00 0.00 0.00 60 1016.3
20201024121037 72 163 2.0 5.0 0.00 0.00 0.00 58 1016.3
20201024120545 71 161 1.0 7.0 0.00 0.00 0.00 59 1016.3
20201024120030 72 191 3.0 7.0 0.00 0.00 0.00 57 1016.4
20201024115543 72 199 1.0 6.0 0.00 0.00 0.00 58 1016.4
20201024115028 72 194 1.0 6.0 0.00 0.00 0.00 57 1016.4
20201024114540 72 172 1.0 7.0 0.00 0.00 0.00 59 1016.7
20201024114039 71 205 4.0 7.0 0.00 0.00 0.00 58 1016.7
20201024113530 71 166 4.0 7.0 0.00 0.00 0.00 59 1016.7
20201024113036 71 229 2.0 6.0 0.00 0.00 0.00 61 1017.0
20201024112536 72 239 0.0 1.0 0.00 0.00 0.00 61 1017.0
20201024112038 72 239 0.0 2.0 0.00 0.00 0.00 62 1017.0
20201024111527 70 239 0.0 3.0 0.00 0.00 0.00 60 1017.1
20201024111033 70 239 1.0 4.0 0.00 0.00 0.00 61 1017.1
20201024110537 70 234 2.0 5.0 0.00 0.00 0.00 61 1017.1
20201024110044 69 212 3.0 6.0 0.00 0.00 0.00 63 1017.4
20201024105533 69 153 4.0 6.0 0.00 0.00 0.00 64 1017.4
20201024105046 68 259 0.0 2.0 0.00 0.00 0.00 70 1017.4
20201024104532 67 259 0.0 2.0 0.00 0.00 0.00 73 1017.5
20201024104040 66 259 0.0 2.0 0.00 0.00 0.00 74 1017.5
20201024103531 65 259 0.0 2.0 0.00 0.00 0.00 72 1017.5
20201024103044 65 259 0.0 2.0 0.00 0.00 0.00 72 1017.8
20201024102531 64 259 0.0 4.0 0.00 0.00 0.00 74 1017.8
20201024102038 64 259 0.0 4.0 0.00 0.00 0.00 75 1017.8
20201024101545 64 259 0.0 3.0 0.00 0.00 0.00 75 1018.0
20201024101032 63 259 1.0 3.0 0.00 0.00 0.00 78 1018.0
20201024100541 62 259 0.0 3.0 0.00 0.00 0.00 79 1018.0
20201024100029 62 259 0.0 1.0 0.00 0.04 0.00 81 1018.1
20201024095537 61 259 0.0 3.0 0.00 0.04 0.00 81 1018.1
20201024095053 61 259 0.0 3.0 0.00 0.04 0.00 83 1018.1
20201024094531 60 259 1.0 3.0 0.00 0.04 0.00 83 1018.3
20201024094041 60 257 0.0 0.0 0.00 0.04 0.00 84 1018.3
20201024093531 59 257 0.0 0.0 0.00 0.04 0.00 84 1018.3
20201024093034 58 257 0.0 0.0 0.00 0.04 0.00 85 1018.5
20201024092543 58 257 0.0 0.0 0.00 0.04 0.00 85 1018.5
20201024092030 57 257 0.0 0.0 0.00 0.04 0.00 86 1018.5
20201024091543 57 257 0.0 0.0 0.00 0.04 0.00 87 1018.6
20201024091026 56 257 0.0 0.0 0.00 0.04 0.00 88 1018.6
20201024090536 56 257 0.0 0.0 0.00 0.04 0.00 88 1018.6
20201024090042 55 257 0.0 0.0 0.00 0.04 0.00 88 1018.7
20201024085530 55 257 0.0 0.0 0.00 0.04 0.00 88 1018.7
20201024085038 55 257 0.0 0.0 0.00 0.04 0.00 88 1018.7
20201024084535 54 257 0.0 0.0 0.00 0.04 0.00 88 1018.9
20201024084033 53 257 0.0 0.0 0.00 0.04 0.00 87 1018.9
20201024083539 52 257 0.0 0.0 0.00 0.04 0.00 87 1018.9
20201024083032 51 257 0.0 0.0 0.00 0.04 0.00 87 1018.9
20201024082540 51 257 0.0 2.0 0.00 0.04 0.00 87 1018.9
20201024082057 50 257 0.0 2.0 0.00 0.04 0.00 87 1018.9
20201024081539 50 257 0.0 3.0 0.00 0.04 0.00 87 1019.0